User: anonymous   Login
Location: Unspecified
(90.0000°S, 0.0000°E)
Time: 12:00:55
(UTC+00:00)
Language:

NOAA 15 - Orbit

View from above orbital plane
View from above orbital plane
View from above satellite
View from above satellite

Ground track
Ground track

The orbit data is extracted from the following two-line orbital elements,

1 25338U 98030A   19232.92006995 +.00000019 +00000-0 +26782-4 0  9997
2 25338 098.7445 254.0653 0011439 062.7303 297.5040 14.25927400106002
Epoch (UTC): 20 August 2019 22:04:54
Eccentricity: 0.0011439
inclination: 98.7445°
perigee height: 797 km
apogee height: 813 km
right ascension of ascending node: 254.0653°
argument of perigee: 62.7303°
revolutions per day: 14.25927400
mean anomaly at epoch: 297.5040°
orbit number at epoch: 10600

The dashed part of the orbit path shows where the satellite is in the earth's shadow,  

DLR